ITY1270 LIRN-LIRF

Flight info

Callsign ITY1270
Flight time 0h 32m
Altitude 18000
Route SIPRO Z803 LAT
Aircraft A319/M-SDE3FGHIRWY/LB1

Departure

Time 2026-02-17 14:20
Airport Naples International Airport (LIRN)

Arrival

Time 2026-02-17 14:53
Airport Rome–Fiumicino Leonardo da Vinci International Airport (LIRF)
Time Latitude Longitude Altitude Speed Heading
2026-02-17 13:30 40.87865 14.28134 294 ft 0 kts 141°
2026-02-17 14:11 40.87868 14.28132 294 ft 2 kts 141°
2026-02-17 14:11 40.87876 14.28122 297 ft 3 kts 141°
2026-02-17 14:12 40.87892 14.28105 296 ft 3 kts 141°
2026-02-17 14:12 40.87907 14.28089 299 ft 3 kts 135°
2026-02-17 14:12 40.87918 14.28070 296 ft 3 kts 98°
2026-02-17 14:12 40.87917 14.28052 300 ft 2 kts 51°
2026-02-17 14:13 40.87909 14.28039 300 ft 2 kts 51°
2026-02-17 14:13 40.87905 14.28032 300 ft 0 kts 51°
2026-02-17 14:13 40.87905 14.28033 300 ft 0 kts 51°
2026-02-17 14:15 40.87907 14.28035 300 ft 1 kts 51°
2026-02-17 14:15 40.87927 14.28068 298 ft 8 kts 50°
2026-02-17 14:15 40.87991 14.28122 292 ft 14 kts 19°
2026-02-17 14:16 40.88063 14.28227 291 ft 16 kts 66°
2026-02-17 14:16 40.88058 14.28386 287 ft 17 kts 97°
2026-02-17 14:16 40.88041 14.28544 289 ft 15 kts 99°
2026-02-17 14:16 40.88081 14.28665 282 ft 17 kts 51°
2026-02-17 14:17 40.88162 14.28807 279 ft 22 kts 53°
2026-02-17 14:17 40.88250 14.28960 275 ft 22 kts 52°
2026-02-17 14:17 40.88353 14.29138 270 ft 26 kts 53°
2026-02-17 14:17 40.88472 14.29345 265 ft 28 kts 52°
2026-02-17 14:18 40.88591 14.29549 259 ft 29 kts 52°
2026-02-17 14:18 40.88714 14.29764 253 ft 27 kts 52°
2026-02-17 14:18 40.88823 14.29953 247 ft 26 kts 53°
2026-02-17 14:19 40.88988 14.30178 238 ft 11 kts 332°
2026-02-17 14:19 40.89053 14.30123 238 ft 9 kts 327°
2026-02-17 14:19 40.89072 14.30069 239 ft 6 kts 244°
2026-02-17 14:19 40.89050 14.30022 240 ft 7 kts 238°
2026-02-17 14:20 40.88937 14.29782 248 ft 69 kts 238°
2026-02-17 14:20 40.88550 14.28961 277 ft 138 kts 239°
2026-02-17 14:20 40.88043 14.27900 900 ft 135 kts 238°
2026-02-17 14:20 40.87403 14.26948 1517 ft 146 kts 219°
2026-02-17 14:21 40.86387 14.26578 2117 ft 160 kts 178°
2026-02-17 14:21 40.85264 14.26720 2819 ft 164 kts 176°
2026-02-17 14:21 40.84114 14.26893 3503 ft 168 kts 174°
2026-02-17 14:21 40.82910 14.27082 3965 ft 188 kts 174°
2026-02-17 14:22 40.81539 14.27290 4444 ft 208 kts 175°
2026-02-17 14:22 40.78533 14.27672 5835 ft 221 kts 176°
2026-02-17 14:23 40.75421 14.28051 7309 ft 228 kts 176°
2026-02-17 14:23 40.73835 14.28358 8035 ft 234 kts 162°
2026-02-17 14:23 40.72479 14.29512 8746 ft 235 kts 128°
2026-02-17 14:23 40.71744 14.31385 9506 ft 228 kts 95°
2026-02-17 14:24 40.71745 14.33466 9970 ft 233 kts 67°
2026-02-17 14:24 40.72545 14.35348 10412 ft 243 kts 38°
2026-02-17 14:24 40.74015 14.36497 10901 ft 255 kts
2026-02-17 14:24 40.75827 14.36456 11366 ft 273 kts 340°
2026-02-17 14:25 40.77499 14.35140 12054 ft 287 kts 323°
2026-02-17 14:25 40.79089 14.33565 13047 ft 291 kts 323°
2026-02-17 14:25 40.80712 14.31945 14024 ft 294 kts 323°
2026-02-17 14:25 40.82353 14.30309 14971 ft 297 kts 323°
2026-02-17 14:26 40.84011 14.28666 15924 ft 299 kts 323°
2026-02-17 14:26 40.85684 14.27013 16873 ft 301 kts 323°
2026-02-17 14:26 40.87370 14.25347 17538 ft 304 kts 323°
2026-02-17 14:27 40.90665 14.21988 17755 ft 287 kts 316°
2026-02-17 14:27 40.91867 14.19879 17743 ft 288 kts 307°
2026-02-17 14:27 40.92973 14.17666 17754 ft 288 kts 307°
2026-02-17 14:27 40.94074 14.15451 17757 ft 288 kts 307°
2026-02-17 14:28 40.95172 14.13238 17758 ft 288 kts 307°
2026-02-17 14:28 40.96272 14.11019 17758 ft 288 kts 307°
2026-02-17 14:28 40.97371 14.08801 17755 ft 288 kts 307°
2026-02-17 14:28 40.98470 14.06582 17757 ft 288 kts 307°
2026-02-17 14:29 40.99568 14.04359 17768 ft 288 kts 307°
2026-02-17 14:29 41.00653 14.02163 17766 ft 289 kts 307°
2026-02-17 14:29 41.01751 13.99937 17769 ft 289 kts 307°
2026-02-17 14:29 41.02849 13.97713 17769 ft 289 kts 307°
2026-02-17 14:30 41.03949 13.95483 17784 ft 289 kts 307°
2026-02-17 14:30 41.05050 13.93247 17786 ft 289 kts 307°
2026-02-17 14:31 41.08341 13.86538 17787 ft 289 kts 307°
2026-02-17 14:31 41.09437 13.84305 17760 ft 289 kts 307°
2026-02-17 14:31 41.10532 13.82069 17765 ft 289 kts 307°
2026-02-17 14:31 41.11625 13.79831 17756 ft 289 kts 307°
2026-02-17 14:32 41.12721 13.77590 17769 ft 289 kts 307°
2026-02-17 14:32 41.13802 13.75383 17767 ft 289 kts 307°
2026-02-17 14:32 41.14899 13.73140 17775 ft 290 kts 307°
2026-02-17 14:32 41.15993 13.70902 17777 ft 290 kts 307°
2026-02-17 14:33 41.17087 13.68658 17792 ft 290 kts 307°
2026-02-17 14:33 41.19273 13.64173 17790 ft 289 kts 307°
2026-02-17 14:33 41.20364 13.61932 17801 ft 289 kts 307°
2026-02-17 14:34 41.21453 13.59692 17799 ft 288 kts 307°
2026-02-17 14:34 41.22541 13.57458 17790 ft 288 kts 307°
2026-02-17 14:34 41.23629 13.55217 17794 ft 288 kts 307°
2026-02-17 14:35 41.25804 13.50745 17788 ft 288 kts 307°
2026-02-17 14:35 41.26892 13.48513 17772 ft 288 kts 307°
2026-02-17 14:35 41.27961 13.46308 17778 ft 287 kts 307°
2026-02-17 14:35 41.29041 13.44071 17787 ft 287 kts 307°
2026-02-17 14:36 41.30119 13.41836 17793 ft 287 kts 307°
2026-02-17 14:36 41.31196 13.39605 17794 ft 286 kts 307°
2026-02-17 14:36 41.32269 13.37383 17419 ft 286 kts 307°
2026-02-17 14:36 41.33347 13.35149 16881 ft 287 kts 307°
2026-02-17 14:37 41.34426 13.32908 16325 ft 288 kts 307°
2026-02-17 14:37 41.35511 13.30659 15786 ft 287 kts 307°
2026-02-17 14:37 41.36574 13.28452 15260 ft 279 kts 307°
2026-02-17 14:37 41.37594 13.26339 14751 ft 272 kts 306°
2026-02-17 14:38 41.38382 13.24054 14249 ft 272 kts 295°
2026-02-17 14:38 41.39002 13.21684 13752 ft 271 kts 294°
2026-02-17 14:38 41.39613 13.19317 13246 ft 269 kts 294°
2026-02-17 14:39 41.40847 13.14598 12538 ft 269 kts 294°
2026-02-17 14:39 41.41479 13.12220 12197 ft 273 kts 294°
2026-02-17 14:39 41.42110 13.09841 11873 ft 272 kts 294°
2026-02-17 14:39 41.42738 13.07494 11562 ft 272 kts 294°
2026-02-17 14:40 41.43374 13.05128 11264 ft 271 kts 294°
2026-02-17 14:40 41.44016 13.02766 10955 ft 271 kts 294°
2026-02-17 14:40 41.45309 12.98048 10345 ft 271 kts 294°
2026-02-17 14:41 41.45959 12.95700 10048 ft 267 kts 294°
2026-02-17 14:41 41.46603 12.93389 9751 ft 265 kts 294°
2026-02-17 14:41 41.47250 12.91098 9441 ft 263 kts 294°
2026-02-17 14:41 41.47893 12.88823 9110 ft 262 kts 294°
2026-02-17 14:42 41.48536 12.86557 8793 ft 261 kts 294°
2026-02-17 14:42 41.49181 12.84301 8473 ft 260 kts 294°
2026-02-17 14:42 41.49822 12.82059 8158 ft 258 kts 294°
2026-02-17 14:43 41.51095 12.77598 7532 ft 256 kts 294°
2026-02-17 14:43 41.51721 12.75377 7214 ft 256 kts 294°
2026-02-17 14:43 41.52349 12.73153 6906 ft 256 kts 294°
2026-02-17 14:43 41.52964 12.70983 6616 ft 256 kts 294°
2026-02-17 14:44 41.53598 12.68758 6316 ft 256 kts 294°
2026-02-17 14:44 41.54287 12.66581 6009 ft 254 kts 298°
2026-02-17 14:44 41.55059 12.64464 5697 ft 252 kts 299°
2026-02-17 14:44 41.55841 12.62376 5383 ft 251 kts 299°
2026-02-17 14:45 41.56613 12.60318 5076 ft 251 kts 299°
2026-02-17 14:45 41.57395 12.58242 4766 ft 250 kts 299°
2026-02-17 14:45 41.58183 12.56178 4458 ft 249 kts 299°
2026-02-17 14:45 41.58968 12.54126 4144 ft 247 kts 299°
2026-02-17 14:46 41.60504 12.50135 3547 ft 245 kts 299°
2026-02-17 14:46 41.61287 12.48103 3229 ft 245 kts 299°
2026-02-17 14:47 41.62831 12.44067 2606 ft 243 kts 299°
2026-02-17 14:47 41.63598 12.42066 2478 ft 241 kts 299°
2026-02-17 14:47 41.64344 12.40124 2461 ft 227 kts 299°
2026-02-17 14:47 41.65223 12.38444 2474 ft 218 kts 313°
2026-02-17 14:48 41.66219 12.36979 2475 ft 204 kts 314°
2026-02-17 14:48 41.67137 12.35631 2476 ft 188 kts 314°
2026-02-17 14:48 41.67991 12.34373 2475 ft 179 kts 314°
2026-02-17 14:48 41.68825 12.33157 2466 ft 175 kts 316°
2026-02-17 14:49 41.69826 12.32318 2352 ft 166 kts 339°
2026-02-17 14:49 41.70911 12.31867 2130 ft 161 kts 340°
2026-02-17 14:49 41.71945 12.31437 1947 ft 150 kts 339°
2026-02-17 14:49 41.72897 12.31041 1765 ft 135 kts 339°
2026-02-17 14:50 41.73749 12.30686 1582 ft 123 kts 338°
2026-02-17 14:50 41.74547 12.30352 1424 ft 119 kts 339°
2026-02-17 14:50 41.75335 12.30011 1280 ft 118 kts 338°
2026-02-17 14:51 41.76883 12.29367 946 ft 116 kts 338°
2026-02-17 14:51 41.77644 12.29065 811 ft 116 kts 337°
2026-02-17 14:51 41.78425 12.28746 629 ft 118 kts 334°
2026-02-17 14:51 41.79211 12.28417 488 ft 119 kts 334°
2026-02-17 14:52 41.79999 12.28078 338 ft 118 kts 333°
2026-02-17 14:52 41.80772 12.27752 200 ft 115 kts 336°
2026-02-17 14:52 41.81539 12.27435 36 ft 114 kts 336°
2026-02-17 14:52 41.82182 12.27155 12 ft 78 kts 342°
2026-02-17 14:53 41.82574 12.26993 12 ft 48 kts 343°
2026-02-17 14:53 41.82849 12.26880 13 ft 36 kts 342°
2026-02-17 14:53 41.83057 12.26756 11 ft 33 kts 326°
2026-02-17 14:53 41.83205 12.26561 12 ft 22 kts 309°
2026-02-17 14:54 41.83230 12.26439 13 ft 10 kts 236°
2026-02-17 14:54 41.83154 12.26429 13 ft 14 kts 161°
2026-02-17 14:54 41.83050 12.26476 11 ft 18 kts 161°
2026-02-17 14:55 41.82776 12.26589 13 ft 23 kts 161°
2026-02-17 14:55 41.82615 12.26657 11 ft 25 kts 163°
2026-02-17 14:55 41.82445 12.26728 11 ft 26 kts 162°
2026-02-17 14:55 41.82267 12.26801 12 ft 27 kts 163°
2026-02-17 14:56 41.82084 12.26879 11 ft 28 kts 162°
2026-02-17 14:56 41.81896 12.26958 13 ft 28 kts 163°
2026-02-17 14:56 41.81706 12.27036 13 ft 29 kts 163°
2026-02-17 14:56 41.81518 12.27116 13 ft 28 kts 162°
2026-02-17 14:57 41.81333 12.27192 14 ft 28 kts 163°
2026-02-17 14:57 41.81155 12.27265 13 ft 27 kts 165°
2026-02-17 14:57 41.80983 12.27339 13 ft 24 kts 163°
2026-02-17 14:57 41.80837 12.27334 13 ft 21 kts 190°
2026-02-17 14:58 41.80693 12.27285 13 ft 20 kts 213°
2026-02-17 14:58 41.80626 12.27118 14 ft 21 kts 249°
2026-02-17 14:58 41.80575 12.26931 13 ft 22 kts 249°
2026-02-17 14:59 41.80467 12.26540 17 ft 23 kts 248°
2026-02-17 14:59 41.80411 12.26337 17 ft 24 kts 250°
2026-02-17 14:59 41.80352 12.26125 16 ft 25 kts 249°
2026-02-17 14:59 41.80293 12.25901 14 ft 26 kts 251°
2026-02-17 15:00 41.80230 12.25674 14 ft 27 kts 249°
2026-02-17 15:00 41.80164 12.25438 14 ft 27 kts 250°
2026-02-17 15:00 41.80104 12.25221 14 ft 23 kts 252°
2026-02-17 15:00 41.80109 12.25004 14 ft 24 kts 280°
2026-02-17 15:01 41.80083 12.24780 15 ft 25 kts 250°
2026-02-17 15:01 41.80020 12.24558 14 ft 26 kts 248°
2026-02-17 15:01 41.79960 12.24334 14 ft 21 kts 251°
2026-02-17 15:01 41.79912 12.24258 14 ft 10 kts 168°
2026-02-17 15:02 41.79846 12.24288 14 ft 11 kts 169°
2026-02-17 15:02 41.79795 12.24223 14 ft 12 kts 248°
2026-02-17 15:02 41.79766 12.24114 16 ft 13 kts 249°
2026-02-17 15:03 41.79678 12.23884 14 ft 15 kts 197°
2026-02-17 15:03 41.79589 12.23917 15 ft 10 kts 160°
2026-02-17 15:03 41.79556 12.23952 14 ft 4 kts 95°
2026-02-17 15:03 41.79568 12.23993 15 ft 5 kts 67°
2026-02-17 15:04 41.79581 12.24038 14 ft 4 kts 69°
2026-02-17 15:04 41.79587 12.24059 15 ft 1 kts 69°
2026-02-17 15:04 41.79588 12.24063 14 ft 0 kts 69°